Retour au catalogue

THOR ABLESTAR R/B

ActifLEO
NORAD 204·ROCKET BODY·🇺🇸 United States

Lancé Nov 15, 1961 depuis Cape Canaveral Space Force Station

Loading…

Prochains Passages (prochaines 24 heures)

TLE

FraisSource: Space-Track

Époque: Sep 14, 2026, 20:20 UTC

1 00204U 61031C   26257.84737888  .00000065  00000-0  49393-4 0  9995
2 00204  32.4441 327.6743 0098810 274.6020  84.3322 13.65087289235286

Suivez THOR ABLESTAR R/B en temps réel avec AllMySat

Download on the App Store